sat.trackr.live / text

‹ back to catalog

STARLINK-31490

NORAD 59222 · 2024-046X

PAYLOAD ACTIVE UNKNOWN

§ Identity

Operator
Country
US
Launch date
2024-03-11
Launch site
AFWTR
Launch vehicle
Mass (kg)
RCS (m²)

Purposes: comms

External: N2YO · Heavens-Above · Gunter

§ Orbital elements

Epoch: 2026-05-25T00:41:24.160704Z

Period
94.11 min
Inclination
53.1598°
Eccentricity
0.0001035
Mean motion
15.30188778 rev/d
Perigee alt
474.5 km
Apogee alt
476.0 km
Semi-major
6,853.4 km
B*
9.3338e-6
RAAN
161.0106°
Arg perigee
84.5008°
Mean anomaly
275.6111°
Rev number
12,472

§ Raw data

STARLINK-314901 59222U 24046X   26145.02875186 -.00000083  00000+0  93338-5 0  99932 59222  53.1598 161.0106 0001035  84.5008 275.6111 15.30188778124729

JSON: /api/v1/satellites/59222 · /tle

For live sub-satellite position, see the globe view (requires WebGL).

§ Visibility from observer

Set your observer location to see the next 7 days of passes ≥ 10°. The values pass through the URL so the page stays shareable.

No JS? Fill the form by hand. The geolocation button needs JavaScript.